Weather in Karintorf

Russia / Kirov Oblast     58°33′08″N   50°11′16″E
temp.,
°C
wind,
m/s
gust,
m/s
humid.,
%
clouds,
%
prec.,
mm/h
press.,
hPa
HPBL,
m
5 march, fri
fri500:00−9nw61389100 0.1 991616
03:00−13wnw41193100 0.1 995384
06:00−16wnw389698 0.0 998204
09:00−13w259249 0.0 1000251
12:00−8wsw368879 0.0 1000509
15:00−7w478989 0.2 1001788
18:00−9w3993100 0.2 1002389
21:00−12nw2495100 0.3 1005119
6 march, sat
sat600:00−17wnw239866 0.0 100630
03:00−19w239944 0.0 100867
06:00−20w259988 0.0 100983
09:00−16wnw359489 0.1 1010274
12:00−13w358798 0.0 1011608
15:00−12w468699 0.1 1010737
18:00−16wsw239593 0.0 101159
21:00−17wsw239787 0.1 101155
7 march, sun
sun700:00−18wsw229992 0.1 101020
03:00−20wsw1210087 0.1 101120
06:00−21ssw2210095 0.0 101020
09:00−16ssw249382 0.0 1009231
12:00−11s348786 0.0 1008538
15:00−11s468893 0.1 1006586
18:00−14se399599 0.0 1004224
21:00−13sse4109299 0.0 1003383
8 march, mon
mon800:00−14se51194100 0.1 1000378
03:00−13se51094100 0.8 998485
06:00−13ese51194100 0.8 995533
09:00−12ese51093100 1.5 994533
12:00−10ese5892100 0.6 994605
15:00−8e4792100 1.0 994511
18:00−10ne3795100 0.4 995314
21:00−12ne369699 0.6 996176
9 march, tue
tue900:00−13nne379698 0.1 997224
03:00−14n389595 0.1 999303
06:00−16nnw389596 0.1 1001290
09:00−13n369197 0.3 1003402
12:00−11nnw3589100 0.1 1005520
15:00−10nnw3488100 0.2 1007652
18:00−13n2696100 0.2 1009252
21:00−16nne269698 0.3 1011237